Precipitable_Water
1.05 1.03 1.03 0.99 0.97 1.01 1.04 1.04 1.05 1.12 1.15 1.15 1.17 1.17 1.19 1.23 1.28 1.33 1.37 1.41 1.40 1.42 1.38 1.38 1.43 1.48 1.55 1.59 1.66 1.60 1.60 1.65 1.64 1.62 1.60 1.57 1.54 1.50 1.60 1.59 1.56 1.57 1.57
1.09 1.06 1.06 1.02 0.98 0.97 0.96 0.97 1.05 1.12 1.17 1.17 1.16 1.19 1.18 1.22 1.28 1.35 1.38 1.40 1.37 1.37 1.39 1.41 1.45 1.51 1.58 1.61 1.57 1.52 1.53 1.55 1.54 1.50 1.45 1.44 1.44 1.55 1.58 1.57 1.56 1.57 1.54
1.09 1.06 1.06 1.00 0.93 0.91 0.93 0.97 1.04 1.12 1.16 1.18 1.19 1.21 1.22 1.23 1.27 1.33 1.42 1.42 1.43 1.46 1.46 1.46 1.49 1.53 1.56 1.53 1.48 1.46 1.44 1.42 1.44 1.40 1.38 1.39 1.48 1.55 1.60 1.57 1.55 1.58 1.55
0.96 1.03 1.02 0.94 0.90 0.92 0.95 1.00 1.03 1.11 1.17 1.20 1.21 1.22 1.25 1.29 1.32 1.35 1.41 1.45 1.43 1.47 1.48 1.49 1.50 1.55 1.53 1.43 1.42 1.38 1.37 1.38 1.39 1.38 1.40 1.49 1.53 1.60 1.57 1.56 1.55 1.55 1.54
0.90 0.98 0.98 0.93 0.89 0.91 0.95 0.98 0.98 1.05 1.12 1.17 1.22 1.25 1.28 1.29 1.35 1.41 1.46 1.49 1.47 1.51 1.55 1.58 1.57 1.52 1.43 1.41 1.38 1.35 1.38 1.41 1.43 1.47 1.50 1.53 1.56 1.59 1.58 1.52 1.53 1.50 1.53
0.86 0.93 0.90 0.89 0.87 0.88 0.93 0.95 0.98 1.03 1.09 1.14 1.19 1.23 1.28 1.31 1.34 1.37 1.46 1.53 1.57 1.55 1.60 1.68 1.65 1.54 1.39 1.38 1.35 1.40 1.44 1.43 1.44 1.48 1.51 1.55 1.59 1.62 1.59 1.51 1.50 1.48 1.52
0.93 0.91 0.88 0.86 0.86 0.90 0.93 0.96 0.97 1.00 1.06 1.13 1.20 1.24 1.28 1.31 1.32 1.34 1.40 1.53 1.66 1.68 1.70 1.80 1.69 1.58 1.49 1.41 1.35 1.37 1.41 1.38 1.37 1.46 1.54 1.56 1.59 1.59 1.57 1.50 1.47 1.48 1.44
0.91 0.97 0.93 0.87 0.88 0.93 0.95 0.96 0.97 0.97 1.03 1.11 1.17 1.23 1.28 1.32 1.33 1.37 1.42 1.57 1.77 1.89 1.83 1.86 1.75 1.67 1.56 1.51 1.43 1.37 1.43 1.46 1.45 1.46 1.55 1.56 1.54 1.62 1.54 1.49 1.45 1.43 1.33
1.05 1.00 0.99 0.91 0.90 0.94 0.97 0.98 0.99 0.99 1.02 1.08 1.14 1.19 1.27 1.32 1.37 1.43 1.50 1.54 1.64 1.82 1.89 1.86 1.79 1.73 1.60 1.56 1.46 1.39 1.43 1.48 1.47 1.46 1.49 1.52 1.54 1.62 1.60 1.50 1.44 1.34 1.24
1.09 1.04 1.00 0.94 0.92 0.94 0.98 1.01 1.02 1.01 1.00 1.03 1.08 1.19 1.30 1.30 1.35 1.40 1.47 1.52 1.60 1.49 1.56 1.89 1.84 1.77 1.64 1.57 1.50 1.46 1.38 1.39 1.42 1.47 1.49 1.53 1.53 1.59 1.58 1.47 1.29 1.21 1.21
1.09 1.03 1.06 0.98 0.93 0.95 0.97 1.02 1.04 1.03 1.02 1.02 1.11 1.20 1.23 1.24 1.28 1.36 1.46 1.55 1.49 1.39 1.41 1.59 1.89 1.75 1.63 1.57 1.56 1.42 1.41 1.42 1.50 1.39 1.50 1.58 1.44 1.49 1.45 1.30 1.21 1.17 1.16
1.04 1.07 1.06 1.09 1.01 1.00 1.02 1.04 1.04 1.02 1.03 1.04 1.08 1.11 1.16 1.23 1.29 1.35 1.40 1.44 1.42 1.44 1.53 1.58 1.88 1.73 1.63 1.54 1.49 1.46 1.36 1.36 1.27 1.35 1.45 1.43 1.29 1.25 1.18 1.15 1.11 1.10 1.08
1.11 1.10 1.08 1.14 1.13 1.08 1.04 1.09 1.08 1.04 1.03 1.05 1.06 1.09 1.14 1.21 1.27 1.33 1.41 1.44 1.49 1.53 1.52 1.53 1.75 1.68 1.59 1.50 1.43 1.36 1.41 1.37 1.15 1.25 1.29 1.30 1.21 1.17 1.11 1.01 1.02 1.05 0.99
1.04 1.19 1.12 1.16 1.19 1.10 1.12 1.10 1.10 1.09 1.11 1.06 1.10 1.12 1.16 1.17 1.24 1.31 1.39 1.43 1.42 1.43 1.47 1.54 1.62 1.61 1.57 1.49 1.40 1.32 1.38 1.37 1.39 1.25 1.25 1.22 1.15 1.11 1.05 1.00 1.00 0.99 0.94
0.77 1.16 1.16 1.21 1.24 1.17 1.09 1.13 1.11 1.13 1.13 1.12 1.11 1.15 1.20 1.20 1.17 1.24 1.33 1.39 1.34 1.36 1.38 1.45 1.45 1.54 1.51 1.51 1.40 1.34 1.37 1.39 1.33 1.20 1.21 1.12 1.11 1.05 0.96 0.97 0.93 0.95 0.91
0.49 1.03 1.28 1.23 1.29 1.27 1.06 1.09 1.12 1.18 1.20 1.19 1.16 1.15 1.17 1.18 1.16 1.22 1.26 1.31 1.31 1.34 1.40 1.38 1.34 1.40 1.51 1.52 1.48 1.37 1.38 1.38 1.36 1.20 1.19 1.14 1.11 1.04 0.94 0.85 0.86 0.87 0.88
0.44 0.62 1.13 1.44 1.37 1.30 1.12 1.11 1.16 1.21 1.18 1.17 1.17 1.15 1.15 1.14 1.13 1.19 1.22 1.24 1.35 1.36 1.39 1.40 1.36 1.39 1.44 1.54 1.56 1.43 1.38 1.36 1.34 1.22 1.12 1.14 1.08 1.01 0.92 0.89 0.89 0.89 0.90
0.40 0.50 0.99 1.30 1.36 1.35 1.30 1.15 1.15 1.21 1.20 1.19 1.19 1.16 1.12 1.08 1.07 1.12 1.20 1.23 1.38 1.40 1.38 1.36 1.36 1.36 1.41 1.49 1.51 1.46 1.39 1.37 1.25 1.18 1.08 1.04 1.01 0.95 0.92 0.88 0.90 0.95 0.97
0.41 0.51 0.91 1.15 1.20 1.24 1.37 1.24 1.11 1.13 1.17 1.23 1.22 1.16 1.06 1.02 1.07 1.08 1.15 1.26 1.37 1.40 1.40 1.38 1.32 1.31 1.39 1.48 1.49 1.46 1.34 1.33 1.25 1.12 1.05 0.97 0.91 0.86 0.84 0.86 0.89 0.88 0.92
0.45 0.55 0.92 1.07 1.14 1.26 1.37 1.23 1.13 1.09 1.11 1.20 1.19 1.08 0.96 0.96 1.07 1.11 1.18 1.22 1.35 1.38 1.32 1.34 1.23 1.35 1.44 1.52 1.46 1.37 1.31 1.25 1.20 1.13 0.96 0.94 0.89 0.83 0.85 0.89 0.93 0.95 0.93
0.46 0.62 0.88 1.07 1.14 1.19 1.18 1.11 1.06 0.98 1.05 1.12 1.17 1.11 0.95 0.91 1.02 1.13 1.21 1.25 1.30 1.31 1.31 1.30 1.28 1.34 1.41 1.51 1.38 1.31 1.26 1.21 1.10 1.02 0.97 0.94 0.91 0.90 0.85 0.90 0.98 0.95 0.87
0.46 0.74 0.90 1.05 1.13 1.15 1.15 1.16 1.09 1.03 1.05 1.09 1.14 1.05 0.92 0.92 1.08 1.23 1.25 1.27 1.34 1.30 1.28 1.27 1.32 1.33 1.44 1.45 1.27 1.21 1.06 1.09 1.04 1.01 1.00 0.98 0.91 0.93 0.91 0.97 0.97 0.92 0.89
0.53 0.75 0.93 1.08 1.13 1.14 1.19 1.20 1.10 1.06 1.04 1.04 1.05 0.96 0.81 0.93 1.14 1.24 1.27 1.33 1.32 1.35 1.28 1.28 1.31 1.33 1.32 1.38 1.35 1.16 1.02 0.92 0.94 0.99 0.96 0.98 0.96 0.96 1.00 1.03 0.98 0.95 0.97
0.72 0.89 1.05 1.12 1.16 1.13 1.20 1.09 0.96 0.91 0.89 0.99 0.99 0.90 0.85 1.01 1.18 1.24 1.33 1.37 1.36 1.36 1.32 1.33 1.38 1.40 1.38 1.25 1.33 1.27 1.19 1.08 0.85 0.83 0.95 0.98 1.00 0.96 0.99 0.98 0.98 1.00 1.02
0.90 1.02 1.02 1.08 1.07 1.08 1.11 1.02 0.98 0.97 1.03 1.04 0.99 0.89 0.88 1.05 1.16 1.24 1.33 1.34 1.37 1.39 1.40 1.36 1.42 1.41 1.40 1.33 1.25 1.21 1.15 1.10 1.09 0.96 0.83 0.87 0.94 0.95 0.95 0.95 0.98 1.04 1.04
0.88 0.95 0.99 0.97 0.98 1.07 1.08 1.01 1.02 1.03 1.02 1.00 0.91 0.82 0.86 1.02 1.14 1.23 1.31 1.35 1.40 1.39 1.39 1.40 1.44 1.43 1.43 1.36 1.31 1.25 1.14 1.05 1.02 0.99 0.88 0.87 0.82 0.89 0.95 1.00 1.01 1.04 1.05
Wind_Speed
11 11 10 9 9 8 8 9 9 9 9 9 9 9 9 9 9 9 9 9 10 11 11 11 12 12 12 12 12 11 11 10 9 10 9 9 9 9 9 9 9 8 8
12 12 11 10 10 10 9 9 10 10 10 10 11 10 10 10 10 11 11 11 11 11 11 12 12 12 13 13 13 12 12 11 10 10 10 10 9 10 10 9 9 9 9
14 13 13 11 11 10 10 10 10 11 11 11 11 12 12 12 12 12 12 12 12 12 12 12 13 13 13 14 14 14 13 12 11 11 11 10 11 11 11 11 10 10 9
15 15 14 12 12 11 11 10 11 11 12 12 12 13 13 13 13 13 14 14 13 13 13 13 14 14 14 14 14 15 14 13 12 12 12 12 12 12 12 11 11 10 10
16 16 15 14 13 12 12 11 12 12 13 13 14 14 14 15 15 15 15 16 15 15 15 15 14 15 15 15 15 15 15 14 13 13 13 13 13 13 13 12 11 10 10
19 18 17 15 14 13 13 12 12 13 14 14 15 15 16 16 17 17 17 18 18 18 17 17 16 16 16 15 15 15 15 15 14 13 14 14 13 14 13 13 12 11 10
21 20 19 17 16 14 14 13 13 13 14 14 15 17 17 18 19 19 19 20 20 20 20 20 19 18 17 15 15 16 16 15 16 14 14 14 14 14 14 13 12 11 9
21 21 19 18 17 16 15 14 14 14 14 15 16 17 18 19 20 21 21 21 20 19 21 22 21 19 17 16 16 17 16 17 16 15 15 15 15 14 14 13 12 11 9
21 22 21 20 18 17 16 15 15 15 15 16 17 18 19 21 21 22 21 21 21 18 23 24 23 20 18 17 17 17 17 18 17 16 16 15 15 14 14 13 11 10 9
22 24 23 22 19 18 17 16 16 16 16 17 17 18 19 20 21 21 22 22 22 18 20 22 26 22 20 18 18 18 18 18 18 17 16 17 16 15 14 12 11 11 10
24 25 25 23 21 20 18 18 17 16 16 16 17 17 19 19 21 21 22 22 22 19 18 20 25 23 21 19 20 19 19 19 18 18 17 17 17 16 14 13 13 12 11
25 27 27 25 23 22 20 19 18 17 17 17 17 17 17 18 19 20 20 21 19 18 17 18 26 24 21 20 21 21 19 20 19 18 18 17 16 17 16 15 14 13 12
29 28 27 27 26 24 22 20 19 18 18 17 17 17 17 17 17 18 19 19 18 18 16 14 24 22 22 21 21 22 20 18 20 19 19 19 17 16 17 16 16 15 13
32 32 30 29 28 26 24 22 20 18 17 17 17 17 17 16 17 18 18 19 18 17 16 16 20 22 21 21 22 22 21 20 19 18 19 18 18 17 17 17 17 15 14
31 33 31 29 28 27 25 22 21 19 18 17 17 17 16 16 17 17 18 18 18 17 17 18 18 20 21 23 23 23 22 20 19 19 18 18 18 17 17 17 17 16 15
28 31 32 30 28 27 26 24 21 19 19 18 17 17 17 17 17 18 19 19 19 19 19 20 21 21 22 23 26 25 24 22 20 19 18 18 18 17 17 17 16 16 15
31 31 33 32 28 27 27 24 22 19 19 18 17 17 17 18 18 19 19 20 20 20 20 20 21 22 23 25 27 28 25 23 21 19 18 18 18 18 18 17 17 16 15
36 34 34 32 29 27 27 25 23 21 18 18 18 17 17 18 19 20 20 20 20 20 21 22 21 22 23 25 29 29 26 24 22 20 18 18 18 19 18 18 17 16 16
32 33 34 32 29 28 27 25 23 21 21 19 18 17 18 18 19 20 20 20 20 20 21 22 21 22 23 26 29 30 28 24 21 20 19 19 19 20 19 19 18 17 16
33 35 35 33 28 27 27 25 23 21 20 19 18 18 17 18 19 20 20 20 20 21 21 22 22 22 24 27 31 28 28 24 22 20 19 18 18 19 19 19 19 17 17
32 35 33 33 28 27 26 25 24 22 20 19 18 18 18 18 19 20 20 20 21 22 23 23 22 22 24 34 33 29 26 25 22 21 21 19 18 19 19 20 19 18 18
31 33 32 32 29 27 25 25 24 22 20 19 18 18 17 18 18 19 20 21 22 22 22 22 22 20 25 31 30 28 24 22 21 21 21 21 19 19 19 20 20 19 18
30 32 31 30 29 26 25 25 23 21 19 19 18 18 17 17 17 18 20 20 21 22 23 23 23 23 29 28 31 29 25 22 21 20 21 21 21 20 20 22 22 21 20
27 30 30 29 28 25 26 25 24 22 19 18 17 16 16 16 16 17 18 19 21 22 24 26 26 27 31 29 29 30 27 23 21 19 21 21 20 21 21 21 22 22 21
27 28 29 29 27 27 26 25 24 21 19 17 16 15 15 15 15 17 17 18 20 21 22 26 29 31 31 32 30 28 26 23 23 19 19 21 21 21 20 21 21 22 22
29 30 29 28 26 27 26 25 24 22 19 17 15 14 13 13 14 16 18 19 21 22 23 26 32 33 32 31 30 30 27 24 24 21 19 21 21 21 21 21 21 22 23
Wind_Direction
236 232 233 239 242 251 258 260 262 260 258 258 257 254 253 250 246 243 240 241 240 237 233 226 222 221 219 215 210 214 213 208 204 203 201 195 182 174 170 164 156 149 142
234 237 238 241 244 251 259 263 263 261 260 258 257 254 254 249 247 246 243 243 242 237 231 228 225 222 220 218 217 215 212 209 209 206 200 193 186 177 173 168 161 154 146
236 236 237 240 245 251 258 263 265 263 262 260 258 255 254 251 249 247 245 244 242 236 233 230 226 224 222 221 219 215 212 210 206 202 199 194 185 179 175 168 162 156 150
236 235 237 241 247 252 257 263 267 264 263 262 259 256 253 253 251 248 246 245 242 238 235 230 229 225 222 218 215 214 212 207 202 200 194 187 182 178 175 169 165 160 155
234 236 239 242 247 252 257 262 269 268 265 263 260 257 255 254 252 250 249 247 243 240 236 232 228 223 217 213 213 212 208 202 199 195 189 184 181 180 175 172 168 163 159
238 241 239 242 248 252 257 263 271 270 268 265 261 258 256 256 254 254 252 248 245 241 237 232 226 217 211 211 211 205 201 198 196 191 187 184 182 179 175 172 169 166 162
240 241 240 242 246 252 259 264 270 270 270 269 265 260 258 258 257 256 255 251 246 243 239 230 222 212 209 208 205 201 198 196 191 187 186 183 179 178 175 174 171 168 167
238 238 240 241 244 250 258 264 269 271 273 271 268 263 259 259 259 258 255 251 246 244 246 226 216 210 207 206 200 198 197 191 188 188 184 183 181 178 177 175 175 175 178
240 239 241 242 243 249 256 264 269 272 277 275 270 265 262 260 261 259 252 248 244 250 250 222 213 209 208 202 198 197 195 192 193 190 186 185 184 180 178 180 183 189 191
242 241 240 242 244 249 255 261 268 273 278 278 273 267 264 262 261 255 249 246 241 254 257 229 211 206 205 198 196 194 193 193 193 194 192 190 188 189 190 195 200 201 198
246 241 239 242 244 248 254 260 267 274 279 279 275 270 269 264 260 253 248 242 244 249 249 246 211 207 201 197 195 194 193 192 190 192 193 196 201 204 208 211 210 208 205
246 242 239 241 244 247 253 257 266 272 277 277 275 272 270 264 258 250 244 239 237 239 247 245 205 203 200 198 197 197 197 201 201 203 204 204 210 213 216 215 215 212 212
247 239 240 242 243 246 249 256 264 271 276 276 274 272 268 261 252 245 238 234 233 233 238 233 205 205 199 200 200 202 202 204 208 210 212 214 215 218 219 218 216 215 217
247 241 241 241 242 243 247 252 260 267 274 277 274 270 264 256 248 242 237 233 232 233 233 221 202 206 203 205 205 206 207 208 206 211 211 214 218 220 219 216 215 219 222
247 239 237 237 239 240 243 249 256 263 269 273 272 267 259 251 247 239 234 230 228 230 226 221 216 210 212 211 211 211 210 209 210 210 214 217 218 218 217 216 218 221 221
244 239 235 233 237 237 240 245 252 264 263 269 269 266 255 250 246 238 234 232 233 230 230 225 223 222 219 217 216 213 211 210 213 213 216 217 216 217 216 216 216 216 219
245 241 235 232 234 236 236 241 248 258 261 265 268 263 254 250 245 239 235 234 234 234 228 226 223 226 225 224 215 210 210 210 211 213 216 217 217 216 215 215 217 218 219
246 238 233 231 230 233 234 238 246 252 259 263 266 259 256 251 245 239 237 236 234 233 231 225 227 229 226 220 208 209 210 209 212 215 218 217 217 215 214 215 216 217 222
239 232 228 227 229 230 232 236 241 249 255 259 262 260 258 252 244 240 236 235 233 232 226 228 230 229 226 215 208 209 207 207 211 218 216 219 217 215 216 215 217 221 223
235 229 226 225 227 228 232 234 239 245 252 255 256 260 258 252 244 240 236 234 232 228 228 230 232 231 230 216 200 204 206 212 212 216 216 215 214 214 216 218 220 225 227
232 223 223 219 223 227 229 232 235 241 247 252 255 256 258 251 245 240 236 232 232 230 231 232 232 233 224 212 201 201 204 209 212 214 215 213 216 217 219 220 223 228 231
224 220 218 217 221 227 231 232 234 239 245 250 253 255 257 253 246 239 235 233 234 232 231 228 230 227 206 194 195 198 202 208 212 212 213 216 219 220 223 225 227 229 233
220 216 216 214 218 226 228 229 231 234 242 247 250 255 256 253 244 238 234 234 233 231 231 230 225 214 199 203 205 204 199 211 209 214 215 221 224 227 230 230 230 234 237
217 213 210 213 219 225 226 226 226 231 238 246 249 253 252 249 240 235 232 235 232 236 235 228 223 214 206 206 205 208 213 211 211 219 222 223 227 232 231 231 231 233 238
214 210 212 215 222 226 221 222 222 228 237 240 247 249 249 246 237 234 235 236 237 236 236 229 217 211 209 209 209 211 215 215 218 222 227 230 232 232 232 232 233 237 240
214 211 212 214 222 218 217 216 220 225 231 237 241 244 245 241 237 237 239 243 243 239 239 228 219 216 208 209 213 212 215 219 222 226 232 232 229 231 233 234 238 241 243